KC5MUJ-1 Weather Reports


time (UTC)temp
C
wind
direction
speed
KPH
gust
KPH
rain 1hr
cm
rain 24hr
cm
rain mn
cm
humidity
%
barometer
mb
20260506175501 23 89 0.0 0.0 0.00 0.00 0.00 78 1012.5
20260506174459 23 84 0.0 0.0 0.00 0.00 0.00 81 1012.4
20260506174001 22 84 0.0 0.0 0.00 0.00 0.00 80 1012.6
20260506173501 22 44 0.0 0.0 0.00 0.00 0.00 80 1012.7
20260506173000 22 66 0.0 1.6 0.00 0.00 0.00 84 1012.7
20260506172501 21 61 0.0 1.6 0.00 0.00 0.00 85 1012.7
20260506171959 21 50 0.0 1.6 0.00 0.00 0.00 85 1012.8
20260506171500 20 49 0.0 0.0 0.00 0.00 0.00 91 1012.7
20260506171002 20 334 0.0 1.6 0.00 0.00 0.00 92 1012.7
20260506170459 19 26 0.0 1.6 0.00 0.00 0.00 95 1012.6
20260506165959 18 40 0.0 1.6 0.00 0.00 0.00 95 1012.8
20260506165502 18 82 0.0 4.8 0.00 0.00 0.00 96 1013.0
20260506164959 18 11 0.0 3.2 0.00 0.00 0.00 94 1013.2
20260506164002 17 13 0.0 1.6 0.00 0.00 0.00 94 1013.3
20260506163500 17 59 0.0 1.6 0.00 0.00 0.00 93 1013.5
20260506163000 17 355 0.0 3.2 0.00 0.00 0.00 92 1013.8
20260506162503 17 355 0.0 8.0 0.00 0.00 0.00 91 1014.1
20260506162003 18 19 1.6 19.3 0.00 0.00 0.00 90 1014.1
20260506161500 18 343 0.0 19.3 0.00 0.00 0.00 90 1014.1
20260506161000 18 322 0.0 4.8 0.00 0.00 0.00 91 1014.1
20260506160500 18 17 0.0 4.8 0.00 0.00 0.00 90 1013.8
20260506155959 19 325 0.0 4.8 0.00 0.00 0.00 90 1013.9
20260506155501 20 9 0.0 4.8 0.00 0.00 0.00 88 1014.1
20260506155000 20 37 0.0 4.8 0.00 0.00 0.00 88 1013.7
20260506153959 22 293 0.0 4.8 0.00 0.00 0.00 85 1013.2
20260506153500 23 351 0.0 3.2 0.00 0.00 0.00 82 1013.2
20260506153000 25 313 0.0 3.2 0.00 0.00 0.00 85 1013.3
20260506152501 25 81 0.0 0.0 0.00 0.00 0.00 91 1012.6
20260506152002 25 81 0.0 0.0 0.00 0.00 0.00 90 1012.1
20260506151501 25 81 0.0 0.0 0.00 0.00 0.00 89 1012.3
20260506150500 25 81 0.0 0.0 0.00 0.00 0.00 89 1012.3
20260506145959 25 81 0.0 0.0 0.00 0.00 0.00 89 1012.1
20260506145502 25 81 0.0 0.0 0.00 0.00 0.00 89 1011.9
20260506145000 25 81 0.0 0.0 0.00 0.00 0.00 89 1011.5
20260506144501 25 81 0.0 1.6 0.00 0.00 0.00 89 1011.6
20260506144001 25 84 0.0 0.0 0.00 0.00 0.00 90 1011.4
20260506143459 25 84 0.0 0.0 0.00 0.00 0.00 89 1011.3
20260506143001 25 84 0.0 1.6 0.00 0.00 0.00 90 1011.3
20260506141503 25 82 0.0 1.6 0.00 0.00 0.00 91 1011.0
20260506141000 25 82 0.0 0.0 0.00 0.00 0.00 92 1011.2
20260506140501 25 82 0.0 0.0 0.00 0.00 0.00 92 1011.6
20260506140002 24 82 0.0 0.0 0.00 0.00 0.00 93 1011.4
20260506135502 24 82 0.0 0.0 0.00 0.00 0.00 93 1011.2
20260506135000 24 82 0.0 0.0 0.00 0.00 0.00 93 1010.7
20260506134501 24 82 0.0 0.0 0.00 0.00 0.00 93 1010.6
20260506133500 24 82 0.0 0.0 0.00 0.00 0.00 93 1010.7
20260506133002 23 82 0.0 0.0 0.00 0.00 0.00 93 1010.8
20260506132502 23 82 0.0 0.0 0.00 0.00 0.00 94 1010.6
20260506132000 23 82 0.0 0.0 0.00 0.00 0.00 94 1010.6
20260506131501 23 97 0.0 1.6 0.00 0.00 0.00 94 1010.6
20260506131004 23 97 0.0 1.6 0.00 0.00 0.00 95 1010.5
20260506130502 23 97 0.0 0.0 0.00 0.00 0.00 94 1010.4
20260506130000 23 97 0.0 0.0 0.00 0.00 0.00 94 1010.4
20260506125502 23 99 0.0 0.0 0.00 0.00 0.00 94 1010.2
20260506124959 23 101 0.0 0.0 0.00 0.00 0.00 94 1010.3
20260506124459 23 101 0.0 0.0 0.00 0.00 0.00 94 1010.3
20260506124000 23 101 0.0 0.0 0.00 0.00 0.00 94 1010.2
20260506123459 23 103 0.0 0.0 0.00 0.00 0.00 94 1010.3
20260506123002 23 194 0.0 0.0 0.00 0.00 0.00 94 1010.3
20260506122500 23 196 0.0 0.0 0.00 0.00 0.00 94 1010.2
20260506121959 23 196 0.0 0.0 0.00 0.00 0.00 94 1010.2
20260506121501 23 196 0.0 0.0 0.00 0.00 0.00 94 1010.4
20260506121002 23 196 0.0 0.0 0.00 0.00 0.00 94 1010.2
20260506120500 23 200 0.0 0.0 0.00 0.00 0.00 93 1010.2
20260506120003 23 200 0.0 0.0 0.00 0.00 0.00 93 1010.1
20260506115501 23 200 0.0 0.0 0.00 0.00 0.00 93 1010.0
20260506114500 23 200 0.0 0.0 0.00 0.00 0.00 93 1009.9
20260506114001 23 200 0.0 0.0 0.00 0.00 0.00 93 1010.0
20260506113459 23 199 0.0 0.0 0.00 0.00 0.00 93 1010.0
20260506113000 23 200 0.0 4.8 0.00 0.00 0.00 93 1010.0
20260506112500 23 199 0.0 3.2 0.00 0.00 0.00 93 1010.0
20260506112002 23 169 0.0 0.0 0.00 0.00 0.00 93 1010.1
20260506111001 23 145 0.0 0.0 0.00 0.00 0.00 93 1010.0
20260506110500 23 136 0.0 0.0 0.00 0.00 0.00 93 1010.0
20260506110000 23 136 0.0 0.0 0.00 0.00 0.00 93 1010.0
20260506105459 23 136 0.0 0.0 0.00 0.00 0.00 93 1010.0
20260506105000 23 152 0.0 0.0 0.00 0.00 0.00 93 1009.9
20260506104500 23 152 0.0 0.0 0.00 0.00 0.00 93 1009.9
20260506104002 23 152 0.0 0.0 0.00 0.00 0.00 93 1009.9
20260506103501 23 152 0.0 0.0 0.00 0.00 0.00 93 1009.7
20260506102959 23 178 0.0 0.0 0.00 0.00 0.00 94 1009.6
20260506102001 23 179 0.0 0.0 0.00 0.00 0.00 94 1009.6
20260506101001 23 176 0.0 1.6 0.00 0.00 0.00 94 1009.6
20260506100501 23 180 0.0 0.0 0.00 0.00 0.00 94 1009.5
20260506100000 23 203 0.0 0.0 0.00 0.00 0.00 94 1009.4
20260506095002 23 189 0.0 3.2 0.00 0.00 0.00 94 1009.3
20260506094500 23 207 0.0 1.6 0.00 0.00 0.00 94 1009.2
20260506094000 23 208 0.0 0.0 0.00 0.00 0.00 94 1009.0
20260506093000 23 200 0.0 0.0 0.00 0.00 0.00 94 1008.9
20260506092506 23 200 0.0 0.0 0.00 0.00 0.00 94 1008.9
20260506092002 23 172 0.0 3.2 0.00 0.00 0.00 94 1008.9
20260506091502 23 190 0.0 0.0 0.00 0.00 0.00 94 1008.9
20260506091003 23 148 0.0 1.6 0.00 0.00 0.00 94 1008.8
20260506090501 23 107 0.0 1.6 0.00 0.00 0.00 94 1008.8
20260506090002 23 194 0.0 0.0 0.00 0.00 0.00 94 1008.7
20260506085502 23 152 0.0 1.6 0.00 0.00 0.00 94 1008.8
20260506084459 23 188 0.0 1.6 0.00 0.00 0.00 94 1008.9
20260506084001 23 188 0.0 4.8 0.00 0.00 0.00 94 1008.9
20260506083459 23 120 0.0 4.8 0.00 0.00 0.00 94 1008.8
20260506083001 23 163 0.0 4.8 0.00 0.00 0.00 94 1008.8
20260506082459 23 178 0.0 0.0 0.00 0.00 0.00 93 1008.8
20260506082000 23 148 0.0 1.6 0.00 0.00 0.00 93 1008.7
20260506081500 23 125 0.0 1.6 0.00 0.00 0.00 93 1008.8
20260506081002 23 183 0.0 1.6 0.00 0.00 0.00 93 1008.8
20260506073503 23 187 0.0 0.0 0.00 0.00 0.00 93 1009.1
20260506073001 23 166 0.0 4.8 0.00 0.00 0.00 93 1009.1
20260506072000 23 177 0.0 1.6 0.00 0.00 0.00 93 1009.3
20260506071503 23 185 0.0 6.4 0.00 0.00 0.00 93 1009.2
20260506071001 23 174 0.0 6.4 0.00 0.00 0.00 93 1009.2
20260506070502 24 136 0.0 6.4 0.00 0.00 0.00 93 1009.3
20260506062002 24 192 0.0 4.8 0.00 0.00 0.00 92 1009.4
20260506061001 23 199 0.0 0.0 0.00 0.00 0.00 92 1009.4
20260506060502 23 171 0.0 4.8 0.00 0.00 0.00 93 1009.3
20260506051000 24 190 0.0 1.6 0.00 0.00 0.00 92 1009.4
20260506050501 24 171 0.0 1.6 0.00 0.00 0.00 92 1009.5
20260506044500 24 97 0.0 1.6 0.00 0.00 0.00 91 1009.4
20260506044003 24 126 0.0 6.4 0.00 0.00 0.00 91 1009.4
20260506043002 24 113 0.0 1.6 0.00 0.00 0.00 91 1009.4
20260506042503 24 201 0.0 4.8 0.00 0.00 0.00 91 1009.3
20260506042002 24 168 0.0 1.6 0.00 0.00 0.00 91 1009.2
20260506041501 24 150 0.0 1.6 0.00 0.00 0.00 91 1009.1
20260506041000 24 107 0.0 4.8 0.00 0.00 0.00 91 1009.2
20260506040501 24 149 0.0 4.8 0.00 0.00 0.00 91 1009.0
20260506040003 24 201 0.0 0.0 0.00 0.00 0.00 91 1009.1
20260506035001 25 138 0.0 1.6 0.00 0.00 0.00 90 1009.0
20260506034501 25 161 0.0 3.2 0.00 0.00 0.00 90 1009.0
20260506034001 25 188 0.0 0.0 0.00 0.00 0.00 90 1008.9
20260506033501 25 118 0.0 0.0 0.00 0.00 0.00 90 1009.0
20260506033003 25 112 0.0 1.6 0.00 0.00 0.00 90 1008.9
20260506032001 25 102 0.0 1.6 0.00 0.00 0.00 89 1008.7
20260506031504 25 202 0.0 1.6 0.00 0.00 0.00 89 1008.5
20260506031001 25 123 0.0 1.6 0.00 0.00 0.00 89 1008.4
20260506030004 25 195 0.0 0.0 0.00 0.00 0.00 88 1008.4
20260506025500 25 116 0.0 1.6 0.00 0.00 0.00 88 1008.3
20260506025002 25 132 0.0 1.6 0.00 0.00 0.00 87 1008.3
20260506024500 25 133 0.0 1.6 0.00 0.00 0.00 87 1008.2
20260506024004 25 107 0.0 1.6 0.00 0.00 0.00 87 1008.1
20260506023500 25 107 0.0 1.6 0.00 0.00 0.00 86 1007.9
20260506023001 26 101 0.0 1.6 0.00 0.00 0.00 85 1007.8
20260506022501 26 102 0.0 1.6 0.00 0.00 0.00 85 1007.8
20260506022001 26 104 0.0 1.6 0.00 0.00 0.00 84 1007.7
20260506021502 26 113 0.0 1.6 0.00 0.00 0.00 84 1007.6
20260506021001 26 96 0.0 1.6 0.00 0.00 0.00 83 1007.6
20260506020501 26 98 0.0 1.6 0.00 0.00 0.00 83 1007.5
20260506020003 26 108 0.0 0.0 0.00 0.00 0.00 83 1007.5
20260506015500 26 108 0.0 0.0 0.00 0.00 0.00 82 1007.3
20260506015003 26 108 0.0 1.6 0.00 0.00 0.00 82 1007.3
20260506014504 26 106 0.0 1.6 0.00 0.00 0.00 82 1007.2
20260506014002 26 106 0.0 1.6 0.00 0.00 0.00 81 1007.3
20260506013001 27 107 0.0 0.0 0.00 0.00 0.00 81 1007.4
20260506012504 27 96 0.0 1.6 0.00 0.00 0.00 80 1007.2
20260506012000 27 96 0.0 1.6 0.00 0.00 0.00 80 1007.2
20260506011001 27 186 0.0 0.0 0.00 0.00 0.00 79 1007.3
20260506010501 27 186 0.0 0.0 0.00 0.00 0.00 78 1007.3
20260506010002 27 186 0.0 4.8 0.00 0.00 0.00 78 1007.3
20260506005502 27 188 0.0 4.8 0.00 0.00 0.00 78 1007.4
20260506005001 27 203 0.0 0.0 0.00 0.00 0.00 77 1007.3
20260506004001 28 205 0.0 0.0 0.00 0.00 0.00 77 1007.3
20260506003500 28 205 0.0 0.0 0.00 0.00 0.00 77 1007.2
20260506002501 28 205 0.0 0.0 0.00 0.00 0.00 77 1007.1
20260506002003 28 206 0.0 0.0 0.00 0.00 0.00 76 1007.1
20260506001001 28 192 0.0 0.0 0.00 0.00 0.00 76 1007.0
20260506000503 28 200 0.0 3.2 0.00 0.00 0.00 75 1007.0
20260505235500 28 178 0.0 1.6 0.00 0.00 0.00 76 1007.0
20260505235003 28 199 0.0 0.0 0.00 0.00 0.00 75 1007.1
20260505234500 28 186 0.0 3.2 0.00 0.00 0.00 75 1006.8
20260505234000 28 202 0.0 3.2 0.00 0.00 0.00 74 1006.8
20260505233503 28 182 0.0 0.0 0.00 0.00 0.00 74 1006.7
20260505233000 28 207 0.0 0.0 0.00 0.00 0.00 73 1006.8
20260505232502 28 161 0.0 0.0 0.00 0.00 0.00 73 1006.8
20260505232000 28 186 0.0 0.0 0.00 0.00 0.00 73 1006.9
20260505230500 28 178 0.0 6.4 0.00 0.00 0.00 73 1006.7
20260505230001 29 112 0.0 3.2 0.00 0.00 0.00 73 1006.7
20260505225503 29 99 0.0 3.2 0.00 0.00 0.00 72 1006.6
20260505225001 29 167 0.0 3.2 0.00 0.00 0.00 72 1006.6
20260505224501 29 108 0.0 0.0 0.00 0.00 0.00 72 1006.6
20260505224002 29 113 0.0 3.2 0.00 0.00 0.00 71 1006.5
20260505223500 29 115 0.0 4.8 0.00 0.00 0.00 71 1006.6
20260505223001 29 127 0.0 4.8 0.00 0.00 0.00 71 1006.5
20260505222501 30 155 0.0 6.4 0.00 0.00 0.00 71 1006.6
20260505221501 30 189 0.0 1.6 0.00 0.00 0.00 71 1006.6
20260505221002 30 188 0.0 4.8 0.00 0.00 0.00 70 1006.7
20260505220501 30 215 0.0 4.8 0.00 0.00 0.00 70 1006.6
20260505220002 30 128 0.0 6.4 0.00 0.00 0.00 69 1006.7
20260505215501 30 182 0.0 6.4 0.00 0.00 0.00 68 1006.8
20260505215000 30 111 0.0 6.4 0.00 0.00 0.00 68 1007.0
20260505214500 31 182 0.0 0.0 0.00 0.00 0.00 67 1007.2
20260505213503 31 172 0.0 0.0 0.00 0.00 0.00 65 1007.2
20260505213001 31 177 0.0 0.0 0.00 0.00 0.00 66 1007.3
20260505211500 31 207 0.0 17.7 0.00 0.00 0.00 66 1007.4
20260505211003 31 202 0.0 17.7 0.00 0.00 0.00 66 1007.3
20260505210501 31 209 0.0 1.6 0.00 0.00 0.00 66 1007.4
20260505210000 31 202 0.0 0.0 0.00 0.00 0.00 67 1007.3
20260505205500 31 196 0.0 0.0 0.00 0.00 0.00 68 1007.4
20260505204503 30 200 0.0 6.4 0.00 0.00 0.00 70 1007.7
20260505204002 30 140 0.0 4.8 0.00 0.00 0.00 71 1007.7
20260505203501 30 217 0.0 3.2 0.00 0.00 0.00 70 1007.8
20260505203003 30 189 0.0 3.2 0.00 0.00 0.00 71 1008.0
20260505202502 30 134 0.0 0.0 0.00 0.00 0.00 71 1008.0
20260505202006 29 190 0.0 16.1 0.00 0.00 0.00 72 1008.3
20260505201000 29 169 0.0 4.8 0.00 0.00 0.00 72 1008.2
20260505200003 28 211 0.0 1.6 0.00 0.00 0.00 73 1008.3
20260505195502 28 153 0.0 1.6 0.00 0.00 0.00 73 1008.4
20260505195002 28 182 0.0 1.6 0.00 0.00 0.00 73 1008.4
20260505194459 28 149 0.0 1.6 0.00 0.00 0.00 73 1008.5
20260505194001 28 205 0.0 1.6 0.00 0.00 0.00 73 1008.6
20260505193000 28 202 0.0 6.4 0.00 0.00 0.00 73 1008.7
20260505192459 28 133 0.0 6.4 0.00 0.00 0.00 74 1008.6
20260505192002 28 186 0.0 1.6 0.00 0.00 0.00 74 1008.5
20260505191503 28 204 0.0 3.2 0.00 0.00 0.00 73 1008.5
20260505191003 28 186 0.0 3.2 0.00 0.00 0.00 73 1008.7
20260505190503 28 183 0.0 4.8 0.00 0.00 0.00 74 1008.8
20260505185500 28 174 0.0 4.8 0.00 0.00 0.00 76 1008.8
20260505184459 28 207 0.0 0.0 0.00 0.00 0.00 76 1008.9
20260505184003 27 190 0.0 1.6 0.00 0.00 0.00 76 1009.1
20260505183459 27 179 0.0 1.6 0.00 0.00 0.00 77 1009.1
20260505183003 27 182 0.0 0.0 0.00 0.00 0.00 77 1009.2
20260505182459 27 200 0.0 0.0 0.00 0.00 0.00 77 1009.2
20260505181959 27 194 0.0 0.0 0.00 0.00 0.00 78 1009.2
20260505181502 27 196 0.0 0.0 0.00 0.00 0.00 78 1009.3
20260505180959 26 182 0.0 0.0 0.00 0.00 0.00 81 1009.3